Tracking 19794 objects as of 21-Jul-2019
HD Live streaming from Space Station
objects crossing your sky now

SL-23 DEB

Track SL-23 DEB now!


NORAD ID: 43385
Int'l Code: 2009-009D
Perigee: 1,217.2 km
Apogee: 35,797.3 km
Inclination: 33.8 °
Period: 650.9 minutes
Semi major axis: 24878 km
RCS: Unknown
Launch date: February 26, 2009
Source: Commonwealth of Independent States (former USSR) (CIS)
Launch site: TYURATAM MISSILE AND SPACE COMPLEX (TTMTR)

Note: This is SATELLITE DEBRIS
aabbcc
Your satellite tracking list
Your tracking list is empty




NASA's NSSDC Master Catalog

Two Line Element Set (TLE):
1 43385U 09009D   18318.71536167 -.00000012 +00000-0 +00000-0 0  9992
2 43385 033.8429 217.5074 6949857 298.4178 341.4754 02.21244446075792
Source of the keplerian elements: AFSPC